GFSSGP_250_spd_348.txt.gz
Wind_Speed
90 92 90 86 80 71 71 71 68 60 62 55 54 48 41 40 39 40 35 36 36 33 31 29 26 25 26 26 26 25 24 22 22 23 16 10 10 13 26 29 37 42 45 49 55 57 50 54 53
99 93 89 87 84 79 76 76 70 65 56 62 57 51 47 46 41 39 39 35 35 33 31 28 26 26 25 26 26 25 23 23 22 21 18 17 15 17 22 31 33 38 45 52 54 54 56 54 59
97 101 96 92 83 80 83 81 76 68 66 63 64 54 53 50 46 43 37 36 36 35 32 29 27 27 26 26 25 26 23 22 23 17 18 16 23 23 27 23 26 35 45 49 54 54 53 55 57
100 99 97 96 85 84 85 86 82 71 72 65 61 57 55 52 52 46 39 37 37 35 36 32 29 28 27 27 25 25 21 22 22 20 14 16 18 31 30 28 26 26 34 47 50 55 56 56 55
100 102 98 95 89 86 90 90 83 77 75 69 63 59 59 58 55 51 45 40 38 38 37 34 32 29 26 25 25 25 21 22 21 20 14 12 24 28 33 32 34 31 27 33 40 53 55 57 52
100 101 99 89 85 85 91 89 83 80 77 71 66 65 59 60 59 53 49 41 38 39 38 36 35 30 29 25 25 23 22 21 19 19 14 13 17 24 30 34 38 35 33 35 38 41 50 53 55
98 97 92 90 87 86 92 90 86 80 77 71 68 66 64 57 59 53 48 42 39 40 38 37 33 31 29 26 24 23 23 20 20 20 17 16 19 20 33 38 42 41 39 38 37 41 46 45 42
101 98 92 97 90 88 91 93 93 88 82 77 67 64 62 56 58 54 52 47 45 39 37 34 32 32 29 27 25 23 23 20 20 20 19 20 21 25 25 34 39 40 42 42 34 40 41 42 45
99 100 98 96 95 93 92 90 91 88 83 79 76 69 66 60 59 56 54 48 45 42 38 32 30 30 26 24 23 23 25 20 21 22 19 21 23 24 29 33 38 36 41 42 42 42 43 45 45
109 101 96 90 92 94 94 90 93 88 86 83 76 76 68 62 59 57 53 50 47 43 42 35 33 30 26 24 23 21 21 20 22 24 21 23 25 26 29 31 36 41 43 47 48 50 54 55 54
104 98 91 90 90 94 95 94 90 90 91 92 85 84 74 70 61 59 56 53 50 46 46 38 35 33 27 27 25 25 23 22 24 25 26 25 27 26 30 32 35 44 49 50 52 56 56 58 58
107 95 94 90 92 94 95 95 92 88 92 93 90 89 81 71 63 61 58 55 53 49 47 42 40 39 36 31 29 26 26 27 27 28 28 29 30 29 31 33 34 34 39 40 50 52 52 51 53
104 97 93 95 97 95 97 97 96 88 87 89 88 86 80 71 68 65 59 57 55 53 50 46 46 43 38 35 35 32 29 28 28 31 33 36 32 29 32 33 35 36 37 41 43 51 53 55 57
102 99 96 96 97 94 92 99 102 89 87 84 89 85 83 78 70 68 62 60 58 56 52 50 50 47 41 37 38 38 34 30 33 34 36 37 32 32 33 33 34 34 37 41 41 45 49 50 51
108 109 104 99 95 91 83 100 103 95 78 83 84 83 83 79 75 72 64 64 61 59 55 51 52 50 45 39 39 38 38 35 35 35 35 35 32 32 32 33 33 33 34 40 46 49 52 54 55
110 106 104 99 95 89 89 95 96 91 92 82 79 82 82 80 77 74 68 67 66 64 60 55 57 54 50 43 42 41 39 37 35 34 35 36 33 32 32 33 33 34 31 30 30 31 28 30 32
110 102 103 99 93 90 91 96 88 84 90 86 80 79 80 81 79 76 72 68 69 67 63 59 60 61 56 50 47 47 44 39 37 36 37 37 36 33 34 33 33 32 30 26 24 24 24 27 30
103 105 105 100 92 89 93 96 88 86 82 84 85 80 81 82 80 77 74 71 69 71 66 63 64 61 57 54 51 51 48 44 42 39 39 38 38 35 35 35 32 30 29 27 23 22 24 27 31
103 100 102 96 93 94 89 91 80 80 85 89 86 85 80 81 82 79 76 74 71 70 67 67 69 60 58 58 56 54 52 48 43 39 39 38 38 38 36 36 33 29 30 28 23 22 24 26 29
90 99 100 99 93 94 95 87 85 75 69 86 90 88 81 77 80 81 78 77 75 73 70 68 67 62 59 58 58 58 56 50 45 42 40 40 40 39 39 37 36 32 30 29 26 24 24 27 27
82 85 101 96 99 96 97 91 83 71 65 73 88 87 86 80 78 78 78 77 75 73 74 71 68 63 59 60 61 58 57 53 49 46 45 45 44 43 41 39 38 35 32 30 28 27 26 26 29
86 87 96 101 95 96 95 90 87 82 71 71 79 88 85 84 79 76 79 77 75 72 71 71 66 62 61 60 59 57 56 55 51 49 49 49 47 47 45 42 40 38 35 31 30 29 28 27 29
78 88 89 92 94 93 87 85 81 82 81 73 77 85 80 83 81 77 75 77 76 74 71 69 66 64 61 59 58 53 52 51 50 49 51 51 50 50 48 45 43 39 37 36 34 32 32 30 31
86 84 76 87 87 87 87 87 84 81 78 77 73 82 79 79 81 80 77 75 75 73 73 72 71 67 63 62 57 53 52 50 50 51 53 53 53 52 51 49 46 43 41 40 38 37 35 33 34
83 82 87 86 90 87 86 87 85 81 77 75 76 74 78 78 81 80 79 77 75 75 74 72 71 69 64 63 62 61 58 55 53 54 57 56 56 55 53 52 50 49 46 45 43 41 40 39 38
73 82 81 81 83 86 89 87 84 78 73 72 74 84 81 80 80 79 78 77 76 74 71 68 67 68 67 65 62 60 56 55 55 57 58 58 58 57 55 54 52 52 51 48 48 46 44 43 41
65 72 78 78 83 87 86 85 86 82 76 74 77 76 77 75 80 81 79 79 78 79 77 75 71 68 67 67 63 61 59 58 60 61 60 61 60 59 57 56 55 54 53 52 51 50 48 47 46
44 53 57 70 80 83 83 82 79 73 68 70 72 69 74 76 81 83 83 82 81 81 78 76 75 73 72 71 69 66 63 62 63 62 63 63 63 62 60 58 57 56 57 56 54 54 53 50 50
11 24 57 58 69 73 78 80 69 67 68 70 71 74 66 73 78 78 82 84 81 80 80 78 76 74 71 72 70 68 66 66 66 66 66 66 65 64 63 61 59 58 58 57 57 57 55 52 52
26 13 6 32 59 67 71 66 72 74 74 72 73 76 78 76 80 82 82 87 86 83 82 82 80 77 74 72 71 71 70 69 68 69 70 70 69 69 66 65 62 61 59 59 57 55 53 50 50

GFSSGP_250_spd_354.txt.gz
Wind_Speed
106 101 95 101 95 83 83 88 86 82 74 64 59 57 54 53 51 42 34 31 28 25 25 27 25 25 24 23 23 23 24 21 17 15 18 19 16 20 18 19 20 35 35 43 45 49 53 47 44
113 105 100 96 97 88 82 87 84 82 78 70 62 60 57 55 52 48 43 36 31 27 25 25 28 28 26 24 23 22 22 19 18 16 20 18 19 18 17 19 21 24 36 40 47 51 55 55 50
121 116 108 101 94 92 89 89 83 82 76 76 68 63 61 57 56 52 49 39 33 26 23 25 28 30 26 24 23 24 24 22 21 19 18 16 19 18 16 18 23 22 29 41 45 52 56 55 58
127 123 118 110 95 91 93 98 86 79 78 76 69 67 64 60 56 51 49 48 43 36 27 23 26 29 29 25 24 24 24 22 22 22 18 18 18 15 18 17 11 18 28 28 40 45 53 61 63
134 129 131 115 100 94 100 101 94 83 80 80 73 68 66 64 62 57 51 46 43 39 32 27 23 27 29 27 26 25 25 20 16 17 15 17 14 12 12 11 14 19 25 31 33 42 45 54 59
137 134 130 116 111 101 103 102 97 89 83 81 77 71 68 68 63 58 54 47 47 42 36 35 29 26 24 29 30 28 26 19 20 21 16 14 14 12 15 15 14 17 18 22 26 35 41 41 42
139 141 129 114 112 108 109 103 93 90 90 84 74 76 70 68 69 62 56 52 49 46 42 37 36 32 28 29 30 31 28 25 25 23 20 16 14 13 13 14 14 15 18 20 23 23 27 38 42
140 137 130 127 119 112 115 105 98 91 88 88 83 74 76 71 70 67 61 55 54 50 46 42 38 35 33 33 30 30 30 28 25 26 23 18 16 15 15 14 15 18 19 20 21 26 28 32 38
140 139 128 124 121 110 117 115 104 96 88 89 84 84 79 75 71 68 63 54 54 56 50 46 42 39 39 38 30 28 31 29 26 28 25 22 20 16 17 17 19 20 23 24 25 27 31 32 35
144 140 126 118 113 108 113 112 109 100 92 89 84 80 81 80 76 69 65 61 54 52 50 48 45 44 45 42 40 32 28 30 29 30 28 23 23 18 15 17 21 24 25 28 30 33 36 37 36
137 136 124 120 112 106 112 117 108 105 100 94 89 86 86 85 80 74 67 62 62 56 50 48 49 48 48 45 44 36 30 32 32 30 26 25 23 23 22 23 25 26 28 30 33 36 38 39 40
133 131 126 119 116 109 113 115 108 104 100 101 95 92 85 88 82 79 71 67 64 58 57 51 46 45 45 44 43 41 33 36 33 32 28 26 26 25 23 25 29 30 29 31 33 37 37 39 39
124 125 124 119 116 111 114 106 103 105 104 99 95 90 86 86 83 81 74 69 69 65 61 57 54 51 47 45 46 43 38 37 37 38 34 31 29 26 26 29 30 29 31 33 35 35 38 37 40
112 126 120 114 109 111 111 102 101 101 101 100 93 89 89 87 82 79 76 72 71 68 65 57 54 53 48 46 46 46 43 41 40 38 36 34 32 30 30 32 32 31 32 34 37 37 37 38 39
112 122 118 117 109 111 110 101 92 96 90 98 96 92 90 90 87 84 78 74 68 67 64 60 56 53 51 49 48 49 47 47 42 42 41 41 39 35 34 34 33 34 33 34 37 38 37 37 38
105 119 116 119 112 113 113 99 97 89 88 88 91 92 89 89 88 85 82 77 71 70 66 62 61 58 57 53 51 52 50 52 49 44 43 43 43 42 38 36 35 36 38 36 38 39 37 37 38
106 117 116 116 110 110 111 103 93 77 70 90 89 91 89 87 86 85 85 81 75 73 69 67 66 63 62 57 56 55 53 54 54 51 47 47 46 43 40 39 38 38 41 38 39 40 38 36 38
86 114 112 111 108 110 107 103 94 71 72 76 89 89 90 88 87 86 84 84 78 77 74 73 71 68 65 63 60 58 56 57 56 55 52 51 48 45 44 43 43 43 42 41 40 41 41 38 38
77 99 109 111 106 101 102 100 94 81 74 76 77 87 88 88 85 86 84 83 80 78 77 77 73 70 67 66 63 64 61 59 59 57 57 56 52 50 49 48 47 47 46 44 42 43 43 43 42
75 97 106 110 104 101 110 97 90 88 77 75 75 80 87 87 85 84 83 84 83 79 80 78 76 76 73 70 68 67 63 61 62 59 58 56 56 56 55 52 52 50 50 49 46 45 46 46 46
76 90 101 106 100 102 99 97 91 89 80 75 73 77 81 85 84 82 79 81 81 83 82 80 79 80 77 74 71 71 66 64 64 61 60 59 58 59 57 55 55 54 54 53 52 49 48 49 48
70 87 100 102 101 101 102 96 94 91 84 77 71 71 74 81 79 80 80 79 79 81 82 80 79 81 78 76 73 72 68 65 64 64 63 63 62 59 59 58 57 57 56 56 55 54 51 51 52
64 79 92 99 102 103 104 102 94 92 89 83 73 69 69 71 80 75 73 76 78 74 75 77 78 80 79 76 75 72 69 66 66 66 66 66 65 63 60 60 61 59 57 58 58 58 55 49 52
54 65 79 91 100 99 102 97 94 91 87 83 76 72 71 69 71 78 75 72 72 74 70 70 75 76 76 76 72 73 72 71 69 66 66 67 66 64 62 61 62 62 60 60 59 56 53 51 51
43 63 75 85 98 103 104 101 92 91 87 83 81 73 72 69 73 72 78 81 74 73 74 70 69 71 73 76 76 74 74 73 73 71 69 69 69 66 64 64 64 63 63 61 57 57 54 53 53
45 54 63 70 81 95 105 102 90 89 89 82 81 76 76 68 68 72 70 75 81 79 76 74 68 67 69 66 72 74 75 76 74 73 73 71 70 67 67 67 66 64 64 63 60 59 57 56 56
11 18 56 63 73 87 94 95 88 88 89 82 79 78 69 69 66 74 74 70 74 78 82 82 79 74 69 68 66 66 69 71 72 73 72 69 70 69 69 69 69 68 67 66 64 63 63 62 61
4 7 15 22 37 69 83 89 86 87 88 83 79 74 71 63 71 66 68 69 72 75 78 78 80 81 80 75 70 67 66 68 69 68 71 70 72 71 72 73 72 70 68 68 67 67 65 64 64
33 20 6 19 21 30 36 65 77 86 89 88 85 80 79 78 70 62 60 67 73 76 78 76 78 78 78 81 78 76 71 66 66 65 66 66 67 68 70 70 70 69 69 68 66 66 67 66 67
28 33 32 9 18 21 26 32 54 70 84 85 88 86 84 85 84 80 74 72 68 67 67 72 76 75 77 79 80 79 78 75 71 69 68 66 65 66 68 69 69 70 70 70 70 70 70 70 71

GFSSGP_250_spd_357.txt.gz
Wind_Speed
108 112 109 109 103 89 84 84 86 84 80 73 63 58 54 50 44 44 44 37 36 29 27 21 22 22 24 24 23 23 22 21 20 18 19 20 21 15 15 14 14 15 27 35 37 43 45 45 47
107 107 113 115 111 104 100 97 88 89 86 80 74 65 63 61 50 47 47 42 36 30 29 25 24 22 23 24 24 25 22 22 20 18 18 21 18 17 15 14 16 18 19 25 30 40 48 46 52
119 117 113 114 113 103 102 98 99 89 88 83 79 74 72 68 66 54 50 47 42 36 32 29 26 22 21 24 27 26 25 26 24 22 21 23 20 19 18 15 17 17 18 17 24 29 43 46 51
124 126 123 115 109 103 99 102 105 94 88 89 79 80 77 73 71 59 53 50 46 47 36 31 24 24 24 24 27 27 28 27 25 22 23 21 16 17 16 14 16 16 18 23 25 28 26 40 45
121 131 132 120 102 104 100 105 105 98 94 86 84 81 81 78 76 66 55 52 50 48 47 37 29 29 24 25 26 28 29 27 25 24 23 14 16 15 15 14 12 14 18 23 22 26 28 31 38
126 128 135 127 111 108 104 110 106 102 95 92 87 82 78 80 79 72 64 59 54 52 50 47 40 34 21 19 21 25 28 29 27 24 20 16 16 15 15 14 13 14 14 14 18 20 22 25 31
130 132 125 118 123 120 111 114 113 104 94 93 91 82 79 79 80 72 65 63 57 54 52 45 39 36 35 26 25 24 25 28 28 27 25 21 19 17 16 14 11 13 12 12 15 19 24 25 26
131 131 126 120 122 121 118 121 114 112 100 93 93 88 83 75 76 72 64 64 62 57 52 47 43 40 36 35 33 27 27 26 25 29 28 24 21 19 19 17 13 13 13 15 15 16 17 19 23
145 133 134 114 113 112 113 124 122 116 112 95 90 86 87 81 75 74 65 66 65 59 55 51 47 45 42 39 35 31 28 23 25 26 27 26 23 23 21 21 18 18 20 22 22 22 23 25 28
151 140 132 120 110 108 108 120 122 117 111 105 99 92 87 85 80 74 74 68 65 63 57 55 50 49 48 44 38 35 32 33 31 28 32 28 25 25 24 21 20 20 20 23 25 28 27 28 29
144 146 141 133 107 109 109 123 119 114 111 105 98 93 92 87 83 77 73 72 68 64 63 60 56 54 51 49 44 39 39 41 42 35 32 31 29 27 26 26 24 24 24 25 28 28 27 28 32
133 142 141 133 113 110 113 125 118 110 107 109 107 103 93 85 84 81 76 73 72 68 64 63 59 56 54 53 51 45 43 46 45 39 36 35 33 32 30 29 28 26 25 26 27 28 28 29 33
100 115 136 131 115 119 116 121 114 113 111 111 111 103 96 86 82 79 79 76 73 70 66 66 61 54 51 55 52 48 45 45 43 42 40 38 37 35 33 33 33 31 28 27 28 30 30 32 34
87 103 115 128 114 120 122 122 112 112 109 108 107 103 96 95 86 82 83 81 78 75 70 68 66 61 57 55 51 47 46 44 43 44 43 41 41 40 39 37 35 35 32 31 30 32 33 33 35
81 88 101 110 115 114 121 119 110 107 105 105 106 105 99 96 94 89 84 81 80 77 75 70 67 65 62 60 57 54 52 47 46 46 46 44 45 41 41 40 39 40 39 36 35 34 35 36 36
83 88 96 103 103 111 120 114 105 102 99 98 100 99 93 93 92 90 85 80 79 79 80 78 73 70 68 64 61 59 55 50 45 45 47 49 47 46 45 43 43 45 45 41 39 39 37 37 37
78 87 96 81 109 114 116 110 105 97 80 92 95 94 94 93 92 93 90 84 82 78 82 82 78 73 71 68 65 59 56 54 49 48 48 51 52 49 48 48 45 46 47 42 44 44 42 38 38
71 85 99 101 108 115 114 106 107 94 85 78 77 89 92 90 93 94 93 90 86 80 81 81 78 74 73 69 68 63 59 57 54 51 52 53 52 54 55 54 52 49 49 47 47 47 45 46 44
64 82 93 96 97 106 110 105 105 95 84 78 80 77 85 90 92 92 91 89 87 84 82 83 81 75 73 72 69 66 63 60 62 55 57 54 55 55 59 59 57 54 51 51 51 49 49 47 47
65 75 91 100 96 108 110 105 102 86 86 74 75 74 77 87 92 91 89 90 91 88 86 86 86 84 78 76 72 71 67 64 65 63 59 60 60 60 59 59 61 59 57 55 55 53 52 51 50
77 81 89 89 100 104 107 104 101 95 86 80 69 80 76 79 88 89 88 89 88 88 86 86 86 84 81 80 77 76 74 70 70 66 60 60 65 64 62 62 61 60 58 59 57 55 54 53 53
67 73 86 86 93 104 102 105 99 99 91 81 72 66 71 75 80 87 90 88 86 85 84 84 84 82 84 84 82 81 79 75 70 67 69 68 67 67 66 64 63 62 61 60 58 57 57 55 55
48 69 81 88 94 98 98 98 93 96 98 86 81 74 66 67 79 79 82 85 84 83 82 83 81 84 83 85 89 84 80 77 73 71 70 70 69 67 67 65 66 66 65 63 62 60 59 57 56
47 59 72 82 90 97 100 96 102 95 91 92 84 78 73 66 67 75 82 80 81 83 82 82 79 76 78 79 86 85 84 83 79 76 73 73 72 70 67 66 67 67 68 67 66 63 62 59 58
43 52 64 77 85 92 98 91 99 94 91 89 88 78 74 74 73 72 75 82 83 82 83 81 80 76 73 73 84 86 86 85 82 80 78 77 75 72 71 70 69 69 68 67 67 66 63 62 61
25 49 65 69 77 86 97 98 90 90 90 91 91 90 79 74 73 72 75 78 82 83 83 82 81 77 72 67 71 75 78 84 83 81 80 78 77 78 77 74 73 72 71 70 69 69 65 67 66
13 26 52 67 75 87 90 93 94 92 93 92 89 86 79 71 67 68 71 78 80 80 82 82 81 81 81 74 66 69 71 72 77 79 77 75 74 75 74 74 74 73 75 73 71 73 72 70 70
14 8 24 46 61 80 83 89 88 90 92 89 86 82 79 77 71 66 67 69 72 76 82 84 84 79 79 78 73 69 69 70 71 73 73 73 73 71 71 72 72 73 74 73 72 72 72 69 70
29 13 12 15 23 56 80 83 88 89 91 90 88 85 83 80 81 76 68 71 75 76 75 77 80 86 82 79 76 77 71 69 70 68 67 70 69 68 68 69 69 70 72 71 71 72 72 71 72
25 25 12 9 20 21 28 35 52 83 91 90 91 90 89 87 88 85 82 77 75 73 75 79 80 83 83 87 87 84 81 76 73 70 70 70 68 67 67 69 71 73 72 71 70 72 72 71 72

GFSSGP_250_spd_360.txt.gz
Wind_Speed
110 110 104 107 101 87 81 79 84 76 72 68 64 62 60 54 51 49 46 42 36 35 29 23 20 19 18 19 19 19 20 19 20 17 18 19 19 17 22 15 15 16 16 16 27 34 40 46 46
107 109 112 112 108 96 89 89 88 82 79 76 69 67 66 63 58 49 49 42 38 38 34 33 31 26 21 19 20 20 20 20 22 19 17 19 20 22 24 17 17 17 18 19 21 24 33 37 42
112 118 116 111 109 99 97 101 102 91 86 78 73 73 70 65 63 56 52 44 40 40 37 35 31 27 22 20 18 19 21 22 22 21 20 22 26 25 23 18 16 19 20 19 21 19 21 28 36
114 123 126 117 102 101 104 105 114 99 90 85 85 79 77 74 71 65 60 49 46 42 41 37 33 28 26 23 22 22 21 23 23 24 25 26 23 24 21 18 16 15 16 17 20 22 24 24 25
112 118 132 134 116 101 98 103 113 104 95 90 92 83 80 74 77 73 68 60 55 51 48 44 39 32 28 23 25 24 21 22 24 25 24 25 25 22 19 18 16 17 13 14 16 22 25 24 24
117 126 127 128 116 112 107 103 108 104 106 105 95 92 86 82 81 75 71 68 64 59 56 50 46 40 35 30 26 24 21 21 22 23 25 27 25 21 19 16 18 17 15 12 12 13 16 19 23
124 123 129 118 115 121 116 113 114 106 100 109 104 101 97 89 85 76 75 72 69 68 61 59 50 47 42 43 37 25 21 19 20 21 23 25 26 25 21 16 17 17 14 13 13 12 12 13 16
131 125 129 122 111 120 120 115 116 113 104 104 106 103 102 94 91 86 79 74 71 71 68 65 60 52 47 44 39 36 33 30 26 19 20 22 25 25 25 21 18 17 17 16 17 18 19 20 21
139 142 135 123 115 105 110 115 122 122 111 102 102 102 102 93 91 89 83 75 71 72 68 69 62 57 52 48 41 39 37 33 32 22 17 19 23 26 25 24 22 20 21 21 21 23 25 26 27
144 144 145 119 115 112 107 111 117 121 115 108 101 103 104 96 87 86 83 79 75 69 67 66 63 60 54 50 48 42 39 35 34 29 24 24 26 27 26 27 27 25 23 24 23 22 21 23 25
149 141 145 129 131 116 110 115 117 121 117 110 104 101 93 92 87 85 84 81 75 70 65 63 61 59 57 52 50 46 43 41 39 35 32 30 32 33 33 31 32 30 28 27 26 26 25 24 25
129 142 140 136 132 120 116 118 118 115 109 108 111 110 103 97 94 88 86 81 77 78 73 66 63 61 59 56 54 52 48 47 44 41 40 37 35 37 39 34 34 35 32 32 32 30 30 30 28
97 110 134 135 137 135 111 122 116 112 110 111 112 114 108 105 99 95 85 81 77 75 72 68 65 64 62 59 57 56 54 53 49 47 47 45 41 38 41 39 37 38 38 36 36 36 35 34 32
79 92 109 126 137 142 114 116 121 115 110 108 107 108 113 111 104 96 89 83 80 77 74 73 70 67 65 63 61 60 58 57 53 51 52 47 42 41 41 43 43 40 41 40 38 37 39 40 38
66 79 96 108 123 128 119 119 116 112 106 101 103 100 103 109 105 103 97 89 84 80 76 73 73 71 69 64 63 60 58 56 55 54 53 48 45 44 44 46 43 46 45 43 41 41 40 44 45
57 73 83 95 111 113 123 118 115 111 105 92 103 102 99 100 101 104 102 92 86 82 78 75 72 71 71 68 65 63 61 58 57 54 51 47 49 49 46 48 48 47 48 45 45 46 45 44 45
53 65 75 83 98 105 117 119 119 106 97 89 92 97 100 97 96 98 98 96 93 86 80 80 79 75 74 71 69 68 68 66 62 59 57 57 54 52 49 50 50 50 50 51 50 48 48 47 45
48 59 68 78 84 75 106 106 118 109 98 78 87 88 85 87 91 95 96 97 94 88 82 79 82 81 78 76 75 72 70 67 65 64 60 59 57 55 52 52 52 52 52 54 54 53 52 51 50
48 56 65 68 73 90 96 101 115 103 90 73 77 83 84 81 90 93 94 93 90 89 88 84 83 82 80 80 78 77 74 70 69 69 68 64 62 59 56 55 55 57 54 56 58 57 57 56 56
46 55 67 80 80 83 76 90 101 101 84 75 67 84 80 82 85 90 91 90 89 88 88 86 85 83 83 80 78 78 80 78 76 72 70 68 65 63 60 59 57 60 59 58 57 58 59 57 58
54 62 77 74 70 78 79 86 95 96 82 74 67 70 85 82 80 83 87 88 89 91 90 89 86 82 82 79 78 76 79 81 79 75 70 68 68 69 66 65 62 63 64 64 63 60 60 59 58
62 67 72 66 61 66 72 77 90 93 82 75 66 64 72 83 79 80 84 87 90 88 89 87 86 86 85 83 82 81 81 80 79 76 71 75 75 75 71 70 68 66 64 66 67 67 66 64 61
74 75 72 70 71 61 58 73 91 91 73 73 58 70 70 71 75 80 82 86 86 86 88 88 87 87 86 84 85 85 83 84 84 80 78 78 77 76 77 75 73 69 69 69 69 67 66 68 66
64 76 74 75 72 63 52 74 85 78 67 66 75 71 73 76 69 72 80 84 86 86 85 85 85 85 85 86 84 84 85 87 86 83 82 80 79 79 81 78 77 74 73 71 72 70 70 70 68
47 74 73 68 69 59 56 69 82 88 86 89 80 71 77 71 72 72 72 78 82 82 83 84 82 80 80 81 83 83 82 73 86 82 79 78 81 83 82 81 80 78 77 73 74 73 73 71 71
17 59 71 67 58 51 53 64 87 96 86 91 86 84 77 73 71 73 69 70 73 79 82 81 82 81 80 78 77 73 78 74 82 83 81 81 80 84 86 86 85 82 81 81 80 77 75 76 75
23 41 49 61 68 70 59 54 79 105 101 95 87 81 79 74 69 71 71 72 76 77 77 79 81 83 82 81 78 75 77 77 81 82 83 82 82 84 83 84 85 83 82 82 76 74 73 73 73
18 32 40 51 62 70 66 56 63 94 105 104 90 83 83 79 78 70 68 67 69 73 78 81 80 79 78 79 79 74 70 72 75 77 80 83 84 83 83 82 83 83 84 81 76 74 75 72 72
15 12 29 40 48 61 56 49 60 74 100 101 99 96 89 84 84 83 79 77 76 72 70 71 73 77 81 83 83 80 77 70 67 67 69 75 78 80 80 79 78 76 75 75 73 72 73 73 72
26 17 11 23 33 48 52 55 51 60 86 91 95 94 100 97 92 88 86 77 79 76 74 74 76 77 79 80 78 73 75 78 77 73 73 73 75 74 77 77 77 75 76 72 73 74 74 73 74